Helicity
41 43 44 43 42 37 32 30 24 12 5 -5 -9 -11 -2 12 25 22 56 58 82 105 46 40 25 20 18 31 35 12 8 4 -24 4 -0 -2 5 8 6 -0 40 40 48 28 17 36 45 141 76 96 100 86 79 83
44 42 41 41 42 36 26 22 19 8 -1 -7 -12 -16 -16 -8 17 27 41 76 60 98 84 12 30 22 24 22 -1 -5 5 -16 -31 -15 -13 -11 7 6 -5 -7 39 17 20 7 67 71 46 24 59 51 60 51 53 43
38 35 31 29 31 32 30 23 15 6 -8 -15 -18 -18 -19 -16 3 17 27 58 69 77 53 73 53 55 28 16 11 2 -8 -12 -5 -28 -17 -1 11 23 -1 30 9 3 32 36 38 33 30 38 19 39 45 46 45 35
29 30 29 26 24 22 23 22 15 3 -7 -17 -25 -28 -20 -17 -8 15 19 33 42 39 40 49 68 36 32 26 41 50 51 9 14 7 -7 6 20 1 2 3 37 -39 -14 26 17 22 40 25 64 88 55 41 37 42
36 30 27 27 21 14 12 12 10 3 -5 -10 -19 -28 -30 -17 -5 11 19 34 18 18 46 32 17 49 17 -11 -0 34 22 34 17 -7 5 33 8 14 -2 -4 -3 9 38 28 32 34 68 74 98 73 61 62 71 62
36 32 26 19 11 3 -1 -1 -0 -0 -3 -7 -12 -17 -28 -21 5 15 6 22 25 29 35 42 26 28 -29 -13 -22 -21 -9 -9 -3 -7 2 -11 12 -1 21 32 40 26 22 56 78 71 42 43 39 60 59 39 62 44
31 26 19 11 3 -5 -10 -6 -2 1 2 -1 -1 -8 -12 -10 -0 8 13 31 23 11 43 52 37 27 -23 -5 20 27 12 -1 5 8 -3 -4 14 16 15 11 20 55 57 53 41 32 20 59 42 31 31 8 16 25
22 17 10 2 -6 -18 -20 -14 -6 8 13 12 9 -3 3 17 1 6 42 23 7 17 26 55 39 -0 -11 -7 -2 25 29 37 30 13 -2 1 30 42 42 47 52 53 58 56 42 35 29 19 -8 -2 18 13 16 28
44 11 -0 2 -16 -31 -34 -34 -21 9 27 30 23 17 36 36 37 35 -4 13 20 11 19 43 18 -7 -15 -15 -5 18 8 17 19 20 18 26 25 71 90 64 32 41 72 61 36 28 10 1 1 -0 10 10 12 27
11 14 -26 -22 -30 -31 -43 -33 -17 31 23 19 52 90 79 41 -10 5 6 6 20 12 17 22 26 9 -5 -21 -19 -17 4 -0 -8 37 36 32 16 91 82 24 38 26 50 32 34 31 22 5 -2 -2 17 22 29 45
6 -1 -2 -11 -11 -20 -27 -22 -18 11 11 43 58 78 86 37 18 26 38 34 33 29 24 9 -3 -9 7 -17 -18 -6 -15 -12 -15 1 -6 5 26 79 46 14 12 -7 20 19 20 5 -4 -5 -10 1 38 33 36 45
-1 -5 -5 1 1 -8 -10 -4 5 33 45 39 45 72 46 38 34 44 60 55 50 43 38 7 8 -7 -4 1 -15 -10 -13 -10 -2 -7 -16 -6 39 64 38 22 17 6 28 28 21 18 13 9 19 29 40 36 32 41
-2 -6 -1 -0 3 7 9 13 16 14 22 54 42 54 55 50 47 44 68 70 81 71 38 23 16 -4 11 11 3 9 6 17 -8 2 16 10 25 48 29 19 18 32 39 39 31 31 32 36 42 51 37 36 26 36
-7 -6 -9 -1 5 2 4 8 9 23 41 52 52 70 62 81 36 55 43 58 93 64 56 36 10 7 -5 -13 -3 21 16 -2 30 24 20 38 12 35 46 20 13 20 33 33 37 42 66 60 53 46 42 44 38 35
1 -3 -8 -11 1 6 3 14 30 36 57 58 72 70 69 58 60 52 55 67 80 50 48 38 23 22 19 34 17 15 64 91 69 35 31 34 4 17 22 15 26 32 46 29 19 20 62 40 32 44 36 43 43 35
10 17 -8 -14 2 12 44 53 54 61 66 70 70 73 57 102 81 55 53 53 63 75 61 54 65 74 68 72 84 102 94 92 44 15 34 15 24 9 -8 9 18 24 37 49 52 44 36 44 44 17 29 34 47 39
13 48 58 53 49 52 48 45 65 64 65 60 50 41 37 67 84 80 52 43 62 80 73 86 89 67 73 73 71 70 66 9 -10 55 40 47 46 40 31 21 15 11 19 31 58 75 65 53 42 39 32 38 41 44
38 47 58 64 40 41 46 51 60 63 62 66 72 73 74 66 69 67 63 50 92 69 64 82 66 74 95 57 60 58 32 32 51 63 49 55 43 54 54 34 49 43 38 54 61 54 55 64 56 58 35 38 38 38
33 55 51 53 45 57 48 43 77 61 46 55 49 38 44 48 38 39 59 68 66 58 96 122 88 53 33 28 23 29 22 14 27 33 65 68 66 74 64 71 64 53 71 53 40 57 75 92 75 77 77 67 50 57
42 57 51 55 56 72 63 61 76 66 60 54 46 45 52 56 62 68 70 81 102 118 182 222 120 59 46 39 39 47 39 49 37 47 57 110 141 99 58 70 72 75 64 61 61 68 65 72 67 67 75 97 102 79
46 57 52 71 81 86 93 76 66 52 50 62 51 56 63 58 69 73 81 96 167 248 227 217 112 61 40 41 61 49 35 52 36 42 52 82 137 117 91 94 105 92 86 86 81 66 59 49 30 27 29 65 93 99
110 68 107 93 98 89 88 90 95 125 93 80 74 76 76 57 51 59 65 135 181 204 231 181 98 48 29 12 43 31 61 91 92 96 82 86 87 105 106 107 100 96 90 87 74 65 50 42 26 31 86 143 118 53
95 90 119 111 97 99 98 96 88 97 95 89 90 94 88 75 72 111 108 119 123 100 91 80 53 33 18 28 73 70 101 87 74 76 90 81 84 86 89 94 96 92 102 88 66 59 58 44 36 32 32 43 55 51
183 151 156 104 101 141 125 113 119 128 111 112 110 105 115 113 109 72 92 101 109 92 88 79 86 70 69 95 99 82 95 86 101 104 83 74 78 92 92 95 88 81 74 59 57 46 43 37 17 15 13 20 35 46
172 132 139 151 169 173 163 144 139 109 118 100 125 117 128 107 115 92 64 57 85 82 56 84 84 57 54 59 75 92 89 85 87 75 77 63 86 92 90 90 85 74 62 62 57 42 26 20 16 13 10 12 24 44
141 97 107 126 171 180 161 165 121 104 114 128 116 145 136 119 121 86 80 89 69 46 47 67 72 66 59 81 71 64 62 77 83 74 89 74 73 82 84 81 85 104 70 52 47 48 38 16 11 -0 -1 1 12 37
182 162 166 211 214 172 210 160 152 139 133 121 142 147 123 134 113 116 115 79 50 50 42 50 63 79 91 82 84 101 105 84 83 95 120 84 90 95 79 71 87 100 60 48 39 35 33 24 18 17 15 24 35 63
181 201 212 185 184 146 156 174 150 141 132 162 176 154 146 144 155 166 139 76 31 69 86 103 116 100 97 99 85 87 104 118 111 111 103 94 92 90 91 94 85 71 54 47 36 33 28 23 21 22 33 42 44 46
242 227 164 159 165 191 188 186 176 173 150 148 161 142 142 158 204 132 103 83 92 107 121 128 131 146 141 103 98 95 88 90 83 72 56 60 77 74 80 79 68 58 51 46 53 38 37 30 37 60 59 44 32 31
205 142 146 139 188 168 162 148 130 135 135 95 98 97 110 117 99 81 117 150 183 174 142 120 105 69 49 38 73 91 104 108 90 70 59 53 66 113 95 83 71 62 56 53 48 57 47 44 50 51 44 36 25 23
215 170 187 152 143 93 97 134 153 129 115 96 79 76 63 78 95 138 155 160 162 162 165 166 165 139 119 92 96 107 119 98 75 87 107 111 113 99 88 87 76 68 68 65 60 58 58 56 65 62 57 49 36 26
120 117 115 113 111 138 116 96 84 68 54 57 62 82 78 102 118 107 197 146 105 89 85 91 104 108 97 102 118 144 123 115 94 99 99 91 85 99 100 88 80 71 72 71 72 73 71 76 72 69 64 54 43 32
109 111 121 117 91 77 85 68 62 73 70 62 69 130 125 135 124 179 137 118 92 92 114 135 137 115 101 104 116 138 162 135 105 102 97 93 110 102 95 88 82 83 86 85 85 85 94 93 86 78 71 59 47 40
Wind_Speed
20 22 25 29 34 37 41 44 45 43 41 36 33 30 28 28 34 36 33 34 25 19 1 5 13 11 10 21 29 33 31 25 34 36 39 42 48 46 44 57 49 45 43 43 46 55 61 41 36 46 39 39 42 49
20 21 24 27 31 35 38 41 42 40 37 34 30 25 24 24 25 29 28 32 26 17 10 6 10 17 19 33 40 38 37 36 35 35 35 37 43 40 43 46 32 43 36 42 35 32 28 29 32 33 38 44 49 56
19 19 22 26 31 34 37 40 40 37 32 28 25 22 18 18 20 21 22 26 27 24 10 14 26 25 14 21 38 37 34 32 35 31 31 31 31 35 37 35 32 37 33 38 38 33 30 35 37 36 42 52 59 63
16 17 21 25 29 32 35 37 37 33 28 23 19 16 14 13 13 15 19 22 25 20 22 27 26 20 20 23 31 39 39 32 35 31 35 35 38 37 38 38 39 32 30 36 38 39 38 38 40 44 55 62 65 68
15 16 18 21 25 29 31 32 33 29 22 18 15 12 10 9 11 14 15 19 24 21 18 14 10 24 16 29 33 35 39 32 37 34 30 36 40 41 40 38 41 38 42 42 42 40 46 52 51 60 59 64 67 72
11 13 15 18 20 22 23 25 27 25 20 12 10 9 7 10 16 19 23 21 20 21 18 20 24 20 30 32 35 37 37 37 33 40 44 41 37 40 40 43 42 43 44 43 46 48 51 50 50 49 59 63 65 69
8 10 12 15 18 18 16 17 18 18 18 11 5 2 9 15 20 22 25 26 22 15 19 21 20 25 34 30 26 24 24 33 34 32 40 42 37 33 39 52 48 45 42 41 44 47 47 44 54 56 56 59 62 63
5 7 9 11 15 19 19 18 12 10 10 9 5 7 18 23 20 19 22 22 15 19 21 25 23 24 34 23 24 26 21 20 19 24 26 8 33 30 36 45 47 40 40 38 40 42 46 49 49 50 55 59 63 64
19 4 7 9 11 15 19 18 12 5 3 7 9 23 25 25 25 29 20 14 22 23 27 27 28 27 24 21 17 27 34 23 31 23 19 32 20 27 42 51 49 47 37 39 39 42 43 44 46 51 55 59 63 60
50 54 23 17 15 9 8 8 6 10 6 17 24 27 29 29 25 21 27 28 27 26 25 24 25 25 22 21 22 17 20 18 16 24 35 19 11 35 46 43 29 23 32 35 38 39 42 44 48 52 56 55 54 54
56 47 42 16 6 7 8 9 10 5 14 30 30 28 30 29 24 27 29 28 28 27 24 23 25 25 27 22 18 22 19 18 17 19 16 15 19 37 46 35 27 24 32 33 37 39 42 46 50 54 54 49 55 47
38 29 7 6 9 7 8 12 19 24 30 29 22 24 24 24 25 25 26 27 25 27 27 24 27 24 24 22 21 21 20 21 19 19 17 17 23 43 45 34 27 27 35 39 42 45 46 49 50 51 51 50 54 42
36 32 26 24 18 15 13 15 16 19 14 23 25 24 23 24 22 24 25 24 25 24 23 22 23 23 23 24 22 22 23 20 19 19 20 20 26 41 42 34 27 32 40 45 48 48 49 52 53 53 52 52 54 48
31 27 26 26 27 26 24 20 17 22 23 22 21 21 18 21 17 20 17 23 24 22 22 21 20 23 22 21 21 22 20 19 19 19 14 22 24 31 39 37 35 33 36 43 52 55 53 55 54 54 51 49 49 50
32 30 29 28 27 30 34 24 14 17 26 22 21 22 13 13 18 20 17 20 20 19 20 21 20 20 19 20 20 20 23 21 21 18 22 21 19 23 27 32 36 40 43 45 48 52 49 52 53 53 52 47 45 49
32 34 33 27 25 23 22 23 21 24 27 22 16 19 14 14 10 13 14 13 15 17 20 19 20 23 20 21 21 19 19 18 15 19 22 17 16 19 20 22 25 31 37 44 49 53 55 53 53 56 56 53 47 47
25 33 24 16 11 17 24 26 24 25 25 23 24 12 7 12 12 13 10 9 11 11 11 18 18 17 22 19 17 14 6 8 17 18 17 20 21 23 24 24 24 24 24 27 38 49 54 57 60 60 60 57 50 47
32 24 16 17 20 24 27 25 30 30 30 25 27 25 16 14 11 11 10 7 5 3 4 7 16 7 16 15 9 12 17 17 17 17 16 20 22 27 32 32 32 31 28 29 32 36 40 47 49 53 59 58 56 56
29 25 18 21 24 31 32 29 30 39 33 34 31 27 24 21 15 10 10 6 2 5 7 16 11 10 7 7 8 18 23 22 20 21 19 20 22 28 29 31 33 31 36 36 34 37 43 51 53 55 55 52 55 57
28 23 23 22 23 32 36 35 30 39 42 37 35 32 27 26 26 18 12 5 2 5 8 12 12 9 13 17 21 25 28 29 26 24 21 26 24 26 26 33 35 39 39 39 39 41 42 48 47 47 45 47 50 53
25 28 24 25 29 34 40 39 37 39 42 41 39 37 37 32 25 22 17 12 9 14 17 18 18 15 18 20 25 28 27 25 22 28 31 28 30 31 30 34 40 41 41 44 43 44 46 41 40 41 44 35 43 46
29 14 26 25 36 36 44 37 41 43 43 44 46 38 43 40 34 26 23 21 20 21 22 23 22 20 19 17 19 22 24 23 27 30 32 31 32 34 35 38 42 43 43 45 46 43 40 43 46 46 36 33 38 46
14 20 30 30 39 44 48 30 42 40 46 45 40 43 41 39 35 35 35 31 27 27 23 21 20 19 17 20 20 16 17 17 22 24 28 32 34 34 34 37 42 42 43 46 47 47 47 46 45 42 39 39 42 45
24 30 36 41 40 44 37 39 36 42 42 43 44 46 44 41 36 40 44 45 39 35 31 24 21 20 18 13 9 8 12 17 21 24 27 31 32 31 34 36 39 40 41 41 45 45 45 43 41 40 38 39 42 43
33 37 41 45 37 41 43 44 42 41 48 40 45 46 43 38 44 47 51 50 43 38 34 22 16 13 12 9 7 9 14 16 19 23 25 29 31 30 29 30 33 37 40 38 40 41 40 38 37 35 34 35 40 44
47 41 42 41 40 41 40 48 44 45 45 44 42 41 40 42 48 49 47 41 42 42 35 23 16 14 13 11 8 10 11 18 22 25 26 27 27 26 27 29 31 34 38 37 36 37 36 35 33 31 30 31 34 39
52 44 40 37 38 37 44 42 40 42 44 44 42 38 41 48 49 45 39 39 40 39 36 27 21 17 14 13 15 17 18 20 25 28 26 26 27 27 25 28 28 34 34 35 36 37 36 34 32 30 28 30 32 36
50 44 45 39 42 40 48 45 44 47 45 40 42 42 46 45 47 39 38 38 35 34 31 28 26 23 17 13 14 16 19 24 25 26 26 27 26 25 25 27 30 31 32 33 34 35 36 34 32 30 30 30 31 35
48 40 37 44 44 47 49 48 51 47 42 40 45 47 48 42 42 42 40 32 30 30 30 28 26 24 20 16 16 16 17 18 17 18 17 19 20 20 19 23 26 29 30 31 33 35 36 36 37 35 34 32 31 33
44 31 44 44 50 53 51 46 52 47 43 44 51 55 50 47 48 44 40 36 35 37 37 32 27 24 23 18 17 17 17 18 19 16 15 15 19 19 17 19 23 26 28 29 31 33 32 33 35 35 34 33 31 31
36 38 49 50 56 54 54 48 46 48 51 53 51 53 59 65 65 55 46 43 43 43 44 38 31 28 25 20 16 15 14 14 14 17 20 21 20 16 16 19 22 24 26 28 29 30 31 32 33 34 34 34 33 32
37 42 46 50 47 40 41 46 48 49 51 53 57 58 64 61 60 56 50 50 47 41 37 35 34 33 29 21 16 15 21 10 7 11 10 14 14 15 16 19 20 22 24 26 28 30 31 32 33 34 34 35 34 33
39 39 42 44 46 46 41 46 48 52 52 57 58 54 55 54 51 48 41 43 44 43 44 46 46 43 27 16 15 14 13 9 7 7 7 10 11 13 15 17 19 20 22 24 26 28 30 32 34 35 37 37 36 35
Wind_Direction
65 52 41 38 34 32 29 28 32 37 42 46 47 49 47 44 38 38 40 40 54 58 69 83 80 93 179 189 210 256 234 240 228 258 288 298 286 286 293 267 281 287 287 286 279 274 273 301 311 297 307 316 316 313
72 52 44 38 32 30 27 26 29 36 41 44 47 49 50 48 46 44 51 40 51 69 84 224 212 214 206 223 246 252 242 246 237 250 246 262 271 292 288 285 305 288 286 291 296 304 304 312 319 323 322 317 315 312
74 52 38 29 26 24 23 24 28 33 40 44 46 49 53 54 55 55 53 47 50 51 68 96 61 73 131 172 210 234 244 239 259 224 241 226 252 250 299 304 313 309 293 293 302 306 312 317 318 324 323 317 315 313
77 45 33 28 25 24 23 24 27 33 39 43 46 49 55 61 70 76 68 58 52 61 65 58 64 82 101 189 180 200 217 206 246 231 244 250 270 290 289 294 285 301 312 302 299 303 312 322 327 325 319 318 317 316
81 69 55 43 34 29 28 29 27 34 41 44 48 53 63 74 89 103 94 83 61 72 66 56 193 66 153 237 224 191 224 191 228 247 215 248 289 304 306 318 305 305 303 304 309 311 308 311 325 317 325 322 320 316
71 71 64 56 50 47 43 39 34 36 42 49 51 58 75 94 102 93 74 107 80 72 74 65 59 89 252 245 302 269 263 282 319 274 267 284 322 318 334 315 330 321 319 320 313 324 323 328 330 334 324 322 319 316
59 60 51 45 43 51 57 52 47 45 43 49 61 76 90 104 108 89 78 87 74 95 83 72 93 90 265 213 151 90 5 319 327 347 312 314 336 351 337 313 324 332 330 331 326 324 324 331 318 316 315 303 319 331
38 60 50 46 33 31 38 45 59 59 53 56 67 87 82 92 104 97 104 101 97 107 99 77 88 116 253 155 175 31 94 88 81 10 267 301 351 1 351 339 338 341 335 332 322 318 315 311 299 301 317 318 334 340
316 31 117 52 48 36 31 37 58 85 80 68 76 67 77 77 80 74 97 115 123 108 82 83 83 87 133 152 168 27 341 26 352 18 31 358 29 6 345 340 339 334 333 309 299 302 301 297 299 311 329 335 342 356
271 261 174 163 165 74 106 118 111 216 87 66 64 60 55 61 76 89 78 79 87 97 102 89 102 93 115 115 123 126 92 90 129 27 351 44 84 357 351 2 24 25 320 278 268 283 294 296 306 315 339 358 4 7
260 215 204 167 74 95 99 87 77 3 75 45 45 51 46 46 71 69 64 68 77 72 96 100 95 87 98 103 109 115 119 131 122 107 115 110 83 1 357 23 72 185 254 269 280 286 295 302 308 327 353 8 7 18
290 305 358 134 14 58 66 45 32 31 30 28 40 41 54 66 72 68 65 65 71 66 81 87 83 88 91 102 98 107 102 113 111 120 127 125 63 346 349 17 19 11 307 286 291 295 303 320 335 346 355 0 5 23
293 302 316 328 349 5 19 21 30 27 44 40 42 48 59 66 63 58 57 62 63 64 80 86 78 84 87 93 88 90 88 103 118 112 110 115 72 357 351 12 24 342 314 300 300 309 315 320 327 338 345 349 353 11
295 305 312 319 327 338 347 1 18 19 29 34 41 36 52 52 67 64 66 52 54 60 71 77 68 66 74 69 81 74 87 88 85 90 109 100 79 32 2 358 355 351 339 323 309 307 314 319 324 330 334 341 348 356
294 300 307 313 322 326 329 350 27 31 11 26 35 28 54 75 50 42 48 46 53 64 59 54 56 60 60 63 76 75 69 72 80 89 77 81 71 40 25 9 351 338 332 328 324 320 323 321 322 323 326 333 339 341
294 299 298 306 318 329 347 356 2 0 358 13 23 20 50 41 45 35 38 44 58 58 45 45 40 39 47 61 62 67 60 57 63 60 59 64 50 34 24 15 4 350 338 330 323 320 318 317 317 315 317 320 325 329
294 301 317 332 345 339 338 339 349 349 353 0 2 17 13 22 25 27 31 42 66 59 51 39 37 43 39 42 46 54 59 50 38 47 48 30 22 17 13 9 3 357 349 340 333 326 320 316 311 309 309 312 316 318
292 298 305 316 322 328 328 330 333 336 332 336 339 348 356 360 5 8 16 31 64 79 48 17 16 20 21 21 29 31 25 32 41 38 33 25 20 10 4 1 359 358 354 348 342 336 329 323 317 312 306 306 306 307
284 292 293 299 307 313 318 323 325 324 326 329 331 337 345 349 349 346 356 7 168 26 4 357 355 346 283 268 329 360 3 7 10 16 25 15 14 12 8 5 1 359 356 351 346 342 336 329 320 313 309 306 301 299
276 282 290 293 300 307 311 316 325 320 322 330 330 332 337 341 347 349 344 328 288 232 295 317 292 303 342 348 349 347 349 353 357 356 4 14 19 19 15 8 5 1 359 356 354 350 345 339 334 325 313 304 301 300
268 277 282 287 294 299 306 311 313 318 321 323 328 328 332 338 337 336 332 330 285 254 278 273 278 300 322 328 333 336 338 345 351 352 355 2 9 11 13 11 6 4 3 0 358 355 351 348 344 338 326 310 304 300
279 256 285 284 291 299 298 304 307 315 316 317 319 323 324 329 330 330 333 321 307 289 278 277 283 289 293 291 312 324 333 341 346 352 356 4 8 9 10 11 9 9 9 8 6 5 5 6 5 3 3 343 320 307
277 272 284 288 285 289 295 305 302 310 308 315 322 321 324 330 337 344 337 331 317 312 306 299 293 287 280 308 322 330 337 347 349 354 357 0 6 11 15 16 15 16 18 19 18 19 20 22 24 25 20 2 336 315
283 276 280 284 279 290 299 298 306 308 310 310 314 317 321 326 333 330 327 328 329 330 330 322 319 319 319 317 317 334 345 346 350 353 356 357 3 12 16 18 20 22 24 26 25 26 27 29 33 34 34 24 0 332
274 275 280 280 285 287 290 296 299 302 303 308 310 314 320 327 324 325 325 329 338 341 341 337 333 324 327 336 348 356 347 348 350 350 355 357 3 11 19 24 25 25 26 32 29 29 30 33 37 39 41 35 14 341
269 272 274 278 282 285 288 294 296 298 305 306 309 316 321 320 320 322 329 337 339 340 343 339 336 336 337 344 351 352 355 346 346 346 352 356 4 12 18 21 23 26 28 32 32 30 30 33 36 39 41 40 28 3
268 272 278 282 288 291 294 296 300 303 302 304 311 313 315 313 316 324 333 337 340 342 339 346 345 341 343 349 353 350 352 348 343 343 351 357 3 11 19 20 23 24 30 32 32 32 33 33 36 40 45 44 37 18
271 274 269 274 280 283 289 293 295 297 301 305 308 304 309 313 317 327 330 335 339 342 341 342 344 347 354 355 352 353 351 348 347 348 352 353 0 12 20 25 24 29 32 33 35 34 35 36 38 44 49 53 48 33
271 273 273 276 279 283 285 287 292 296 301 300 303 306 309 313 317 318 322 328 331 332 330 332 336 342 350 351 344 341 343 345 349 345 348 354 1 6 24 28 28 30 33 34 35 34 36 39 42 49 53 55 51 40
271 270 276 278 279 281 286 289 293 297 301 303 304 303 303 307 310 313 314 313 310 308 308 311 312 308 309 310 313 319 323 324 327 338 342 349 354 12 31 32 30 31 36 39 38 40 47 49 51 49 48 47 46 43
275 271 279 280 284 286 288 293 296 299 301 301 302 300 301 302 304 307 307 306 304 303 301 299 296 293 294 286 281 289 301 309 317 328 332 340 353 16 28 32 35 39 41 40 38 39 41 41 41 40 40 39 39 36
275 278 281 282 286 294 298 297 298 299 300 300 300 302 303 304 304 308 314 311 310 308 306 303 298 296 292 289 287 293 309 305 306 323 334 342 360 18 20 32 43 42 40 38 39 38 40 38 36 35 33 31 30 28
281 282 284 288 291 294 298 300 301 302 302 302 304 305 304 305 306 315 326 325 320 317 314 309 304 301 299 283 277 292 301 313 331 338 343 350 11 23 22 34 44 40 42 41 40 36 34 35 31 29 26 24 24 23